Port Edwards, WI

4:14 PM CST on December 08, 2016 (GMT -0600)
Alexander Field South Wood County

Weather History for KISW - August, 2013

Change the Weather History Date:

Tuesday, August 6, 2013

  Actual Average Record
Temperature  
Mean Temperature 73 °F -  
Max Temperature 84 °F 80 °F 95 °F (2001)
Min Temperature 62 °F 56 °F 40 °F (1948)
Cooling Degree Days 8    
Growing Degree Days 23 (Base 50)    
Moisture  
Dew Point 62 °F    
Average Humidity 82    
Maximum Humidity 100    
Minimum Humidity 38    
Precipitation  
Precipitation 0.00 in - - ()
Sea Level Pressure  
Sea Level Pressure 29.83 in    
Wind  
Wind Speed 3 mph (SW)    
Max Wind Speed 15 mph    
Max Gust Speed 22 mph    
Visibility 6 miles    
Events Fog , Rain , Thunderstorm    
Averages and records for this station are not official NWS values.
T = Trace of Precipitation, MM = Missing Value Source: NWS Daily Summary

Daily Weather History Graph

Daily Weather History Graph

Search for Another Location

Airport or City:

Trip Planner

Search our weather history database for the weather conditions in past years. The results will help you decide how hot, cold, wet, or windy it might be!

Date:

Astronomy

Aug. 06, 2013 Rise Set
Actual Time 5:52 AM CDT 8:17 PM CDT
Civil Twilight 5:19 AM CDT 8:49 PM CDT
Nautical Twilight 4:39 AM CDT 9:30 PM CDT
Astronomical Twilight 3:53 AM CDT 10:15 PM CDT
Moon 5:46 AM CDT (8/6) 7:48 PM CDT (8/6)
Length of Visible Light 15h 29m
Length of Day
14h 24m
Waning Crescent, 0% of the Moon is Illuminated
Aug 6
Waning Crescent
Aug 6
New
Aug 14
First Quarter
Aug 20
Full
Aug 28
Last Quarter

Hourly Weather History & Observations

Time (CDT) Temp. Heat Index Dew Point Humidity Pressure Visibility Wind Dir Wind Speed Gust Speed Precip Events Conditions
12:54 AM 66.0 °F - 63.0 °F 90% 29.86 in 10.0 mi Calm Calm - N/A   Overcast
1:54 AM 66.0 °F - 64.0 °F 93% 29.86 in 9.0 mi Calm Calm - N/A   Overcast
2:54 AM 66.0 °F - 64.0 °F 93% 29.84 in 9.0 mi WSW 3.5 mph - N/A   Overcast
3:36 AM 64.4 °F - 62.6 °F 94% 29.85 in 9.0 mi SW 4.6 mph - N/A   Overcast
3:54 AM 64.9 °F - 63.0 °F 93% 29.83 in 9.0 mi Calm Calm - N/A   Overcast
4:28 AM 62.6 °F - 62.6 °F 100% 29.84 in 3.0 mi Calm Calm - N/A   Partly Cloudy
4:30 AM 62.6 °F - 62.6 °F 100% 29.84 in 1.0 mi Calm Calm - N/A   Mist
4:36 AM 62.6 °F - 60.8 °F 94% 29.85 in 0.5 mi SSW 3.5 mph - N/A Fog Fog
4:42 AM 62.6 °F - 62.6 °F 100% 29.85 in 1.0 mi SW 5.8 mph - N/A   Mostly Cloudy
4:45 AM 64.4 °F - 62.6 °F 94% 29.84 in 2.0 mi SW 3.5 mph - N/A   Mostly Cloudy
4:48 AM 64.4 °F - 62.6 °F 94% 29.84 in 4.0 mi SSW 3.5 mph - N/A   Mostly Cloudy
4:54 AM 64.0 °F - 63.0 °F 96% 29.83 in 5.0 mi SW 4.6 mph - N/A   Overcast
5:54 AM 63.0 °F - 62.1 °F 97% 29.82 in 3.0 mi SW 5.8 mph - N/A   Mostly Cloudy
6:02 AM 62.6 °F - 62.6 °F 100% 29.83 in 1.5 mi Calm Calm - N/A   Overcast
6:07 AM 62.6 °F - 62.6 °F 100% 29.83 in 0.8 mi Calm Calm - N/A   Overcast
6:21 AM 62.6 °F - 62.6 °F 100% 29.84 in 1.0 mi Calm Calm - N/A   Overcast
6:29 AM 62.6 °F - 62.6 °F 100% 29.84 in 1.8 mi Calm Calm - N/A   Overcast
6:54 AM 63.0 °F - 62.1 °F 97% 29.83 in 1.2 mi Calm Calm - N/A   Overcast
7:09 AM 64.4 °F - 62.6 °F 94% 29.85 in 3.0 mi Calm Calm - N/A   Overcast
7:23 AM 64.4 °F - 62.6 °F 94% 29.85 in 2.0 mi Calm Calm - N/A   Overcast
7:31 AM 64.4 °F - 62.6 °F 94% 29.85 in 1.5 mi Calm Calm - N/A   Overcast
7:47 AM 64.4 °F - 62.6 °F 94% 29.85 in 1.0 mi SW 3.5 mph - N/A   Overcast
7:54 AM 64.0 °F - 63.0 °F 96% 29.84 in 1.0 mi Calm Calm - N/A   Overcast
8:02 AM 64.4 °F - 64.4 °F 100% 29.86 in 0.8 mi Calm Calm - N/A   Overcast
8:32 AM 64.4 °F - 64.4 °F 100% 29.86 in 1.2 mi SW 4.6 mph - N/A   Overcast
8:50 AM 66.2 °F - 64.4 °F 94% 29.85 in 3.0 mi SSW 4.6 mph - N/A   Overcast
8:54 AM 66.0 °F - 64.9 °F 96% 29.85 in 4.0 mi SSW 5.8 mph - N/A   Overcast
9:05 AM 66.2 °F - 64.4 °F 94% 29.86 in 7.0 mi SW 6.9 mph - N/A   Overcast
9:29 AM 69.8 °F - 64.4 °F 83% 29.87 in 9.0 mi SSW 9.2 mph - N/A   Overcast
9:54 AM 70.0 °F - 64.0 °F 81% 29.86 in 10.0 mi SW 9.2 mph - N/A   Mostly Cloudy
10:30 AM 73.4 °F - 62.6 °F 69% 29.86 in 10.0 mi SW 9.2 mph - N/A   Scattered Clouds
10:54 AM 73.0 °F - 62.1 °F 68% 29.85 in 10.0 mi SW 9.2 mph - N/A   Partly Cloudy
11:54 AM 77.0 °F - 61.0 °F 58% 29.84 in 10.0 mi WSW 11.5 mph - N/A   Clear
12:54 PM 81.0 °F 81.6 °F 60.1 °F 49% 29.82 in 10.0 mi West 15.0 mph 19.6 mph N/A   Partly Cloudy
1:54 PM 82.0 °F 82.0 °F 57.9 °F 44% 29.81 in 10.0 mi SW 10.4 mph - N/A   Partly Cloudy
2:54 PM 81.0 °F 81.3 °F 59.0 °F 47% 29.80 in 10.0 mi SW 6.9 mph - N/A   Clear
3:54 PM 84.0 °F 83.0 °F 55.9 °F 38% 29.80 in 10.0 mi West 11.5 mph 18.4 mph N/A   Clear
4:54 PM 84.0 °F 83.3 °F 57.0 °F 40% 29.79 in 10.0 mi WSW 8.1 mph - N/A   Partly Cloudy
5:54 PM 84.0 °F 83.0 °F 55.9 °F 38% 29.78 in 10.0 mi WSW 9.2 mph - N/A   Clear
6:54 PM 82.0 °F 81.7 °F 57.0 °F 42% 29.78 in 10.0 mi SW 5.8 mph - N/A   Clear
7:54 PM 78.1 °F - 62.1 °F 58% 29.77 in 10.0 mi SSW 6.9 mph - N/A   Mostly Cloudy
8:54 PM 75.0 °F - 63.0 °F 66% 29.76 in 10.0 mi SSW 5.8 mph - N/A   Clear
9:54 PM 75.0 °F - 64.0 °F 69% 29.76 in 10.0 mi SSW 8.1 mph - N/A   Clear
10:54 PM 75.0 °F - 66.0 °F 73% 29.73 in 10.0 mi South 9.2 mph - N/A   Overcast
11:18 PM 75.2 °F - 66.2 °F 73% 29.74 in 10.0 mi SSW 11.5 mph - N/A Thunderstorm Mostly Cloudy
11:39 PM 75.2 °F - 66.2 °F 73% 29.79 in 10.0 mi WSW 12.7 mph 21.9 mph 0.00 in Rain , Thunderstorm Light Rain